Torna al catalogo

NOAA 16 DEB

AttivoPO
NORAD 41212·DEBRIS·🇺🇸 United States

Lanciato Sep 21, 2000 da Vandenberg Space Force Base

Loading…

Prossimi Passaggi (prossime 24 ore)

TLE

AggiornatoSource: Space-Track

Epoca: Sep 14, 2026, 21:10 UTC

1 41212U 00055DR  26257.88248402  .00003670  00000-0  11972-2 0  9996
2 41212  98.9538  51.2668 0014536  48.2858 311.9569 14.39225341558114

Traccia NOAA 16 DEB in tempo reale con AllMySat

Download on the App Store